Location: Handeloh
(53.2500°N, 9.8330°E)
Time: 20:19:12
(UTC+01:00)

S-56A Canister/Altair - Pass Details

Date: 24 November 2019
Orbit: 633 x 2499 km, 38.9° (Epoch: 11 December)

Event Time Altitude Azimuth Distance (km) Brightness Sun altitude
Rises 13:38:12 0° 192° (SSW) 5,981 13.9 13.6°
Reaches altitude 10° 13:44:55 10° 172° (S) 4,688 12.7 13.2°
Maximum altitude 13:50:35 14° 146° (SE) 4,006 11.7 12.9°
Drops below altitude 10° 13:55:33 10° 118° (ESE) 4,004 11.3 12.6°
Sets 14:00:22 0° 96° (E) 4,601 11.3 12.2°
